MST,Max TemperatureF,Mean TemperatureF,Min TemperatureF,Max Dew PointF,MeanDew PointF,Min DewpointF,Max Humidity, Mean Humidity, Min Humidity, Max Sea Level PressureIn, Mean Sea Level PressureIn, Min Sea Level PressureIn, Max VisibilityMiles, Mean VisibilityMiles, Min VisibilityMiles, Max Wind SpeedMPH, Mean Wind SpeedMPH, Max Gust SpeedMPH,PrecipitationIn, CloudCover, Events, WindDirDegrees
2013-1-1,21,11,0,17,8,1,92,80,67,30.45,30.33,30.11,10,7,1,13,2,15,T,5,Snow,190
2013-1-2,23,9,-5,12,4,-7,91,74,57,30.59,30.48,30.39,10,10,10,60,5,,0.00,2,,195
2013-1-3,17,4,-9,4,-5,-14,87,76,56,30.61,30.48,30.21,10,10,5,6,2,,0.00,0,,204
2013-1-4,20,4,-12,6,-4,-14,87,74,61,30.47,30.41,30.32,10,10,10,8,2,9,0.00,0,,155
2013-1-5,21,7,-8,8,-1,-12,95,74,52,30.59,30.51,30.41,10,10,10,10,2,13,0.00,0,,187
2013-1-6,19,10,0,11,3,-5,88,81,71,30.40,30.23,30.11,10,10,10,5,2,,0.00,0,,192
2013-1-7,27,14,1,14,7,0,92,75,57,30.22,30.07,29.92,10,10,10,12,3,13,0.00,0,,177
2013-1-8,35,22,9,22,14,7,84,70,56,30.28,30.09,29.92,10,10,10,14,5,15,0.00,0,,158
2013-1-9,42,24,6,28,17,5,92,73,54,30.32,30.14,29.87,10,10,10,25,10,30,0.00,0,,176
2013-1-10,44,35,25,27,23,19,85,66,46,29.83,29.55,29.43,10,10,10,22,13,26,0.00,1,,153
2013-1-11,24,15,6,19,7,-1,88,79,69,30.22,29.76,29.46,10,3,0,28,15,43,0.03,8,Fog-Snow,315
2013-1-12,10,4,-3,3,0,-6,91,79,66,30.35,30.14,30.00,10,4,1,67,3,79,0.01,7,Snow,205
2013-1-13,6,-6,-19,-1,-8,-20,92,81,69,30.49,30.40,30.14,10,8,4,9,1,10,T,4,Snow,183
2013-1-14,12,-3,-19,2,-9,-20,89,78,66,30.56,30.42,30.31,10,10,10,30,3,31,T,3,,189
2013-1-15,20,9,-3,9,3,-5,91,76,61,30.43,30.40,30.35,10,10,9,10,2,10,0.00,5,,200
2013-1-16,26,14,1,14,5,-1,95,79,62,30.60,30.51,30.42,10,10,10,9,2,10,0.00,0,,199
2013-1-17,26,12,-3,14,5,-6,91,75,59,30.69,30.55,30.40,10,10,10,8,1,9,0.00,0,,197
2013-1-18,29,14,-1,17,9,-2,95,79,62,30.36,30.28,30.19,10,10,10,12,3,12,0.00,0,,199
2013-1-19,30,17,4,17,11,2,83,68,53,30.45,30.35,30.25,10,10,10,13,3,14,0.00,0,,188
2013-1-20,31,17,2,18,10,0,96,75,53,30.53,30.46,30.34,10,10,10,9,2,,0.00,1,,139
2013-1-21,28,14,0,17,7,-3,92,80,68,30.43,30.33,30.24,10,10,9,12,2,23,0.00,0,,187
2013-1-22,30,15,-1,17,8,-4,96,75,53,30.35,30.30,30.24,10,10,10,12,1,46,0.00,0,,193
2013-1-23,29,18,6,19,14,4,92,78,63,30.32,30.24,30.15,10,10,10,8,1,9,0.00,0,,215
2013-1-24,33,22,10,22,16,8,92,77,61,30.27,30.15,30.08,10,10,10,13,4,15,0.00,0,,196
2013-1-25,39,22,5,25,16,3,92,73,54,30.32,30.22,30.12,10,10,10,10,2,12,0.00,0,,191
2013-1-26,40,26,11,26,18,8,92,71,50,30.10,29.97,29.80,10,10,10,14,3,17,0.00,0,,206
2013-1-27,38,26,14,30,26,12,100,85,70,29.87,29.76,29.65,10,6,1,15,5,26,0.05,6,Snow,300
2013-1-28,31,15,-1,27,19,-2,100,82,63,29.94,29.84,29.75,10,6,0,10,5,12,0.01,7,Fog-Snow,233
2013-1-29,22,11,0,14,5,-3,92,80,67,30.29,30.03,29.74,10,9,1,15,5,23,0.00,3,,171
2013-1-30,24,12,0,20,13,-2,92,86,80,30.17,30.02,29.88,9,5,1,49,1,79,T,7,Snow,14
2013-1-31,28,19,9,21,18,8,92,84,75,30.29,30.13,29.96,10,6,1,40,3,86,0.03,6,Snow,165